{"data":{"norad_id":68930,"intl_designator":"2026-098M","name":"KUIPER-00415","alt_names":[],"object_type":"PAYLOAD","status":"ACTIVE","operator":null,"country":"US","launch_date":"2026-04-30","launch_site_code":"FRGUI","launch_vehicle":null,"mission":null,"orbit_class":"UNKNOWN","rcs_meters":null,"size_class":null,"mass_kg":null,"dimensions":null,"purposes":[],"wikipedia_slug":null,"has_3d_model":false,"image_url":null,"decayed_at":null,"tle_current":{"epoch":"2026-09-19T22:53:42.798048Z","epoch_age_seconds":62685,"freshness":"FRESH","line1":"1 68930U 26098M   26262.95396757 -.00000069  00000+0  19950-4 0  9993","line2":"2 68930  51.9037 354.1124 0000487  99.8108 260.2910 14.79927756 21580","mean_motion":14.79927756,"eccentricity":4.87e-5,"inclination_deg":51.9037,"raan_deg":354.1124,"arg_perigee_deg":99.8108,"mean_anomaly_deg":260.291,"bstar":1.995e-5,"rev_number":2158,"period_min":97.302046952081,"perigee_km":629.21090876919,"apogee_km":629.89345769563,"semimajor_km":7007.6891832324,"source":"CELESTRAK","updated_at":"2026-09-20T09:00:24.555828Z"}}}